Location: Baggettsville
(36.4767°N, 86.7303°W)
Time: 09:02:46
(UTC+00:00)

COSMO-SKYMED 1 - Pass Details

Date: 29 October 2020
Orbit: 621 x 623 km, 97.9° (Epoch: 04 December)

Event Time Altitude Azimuth Distance (km) Brightness Sun altitude
Rises 23:32:41 0° 17° (NNE) 2,908 5.7 -8.6°
Reaches altitude 10° 23:34:55 10° 21° (NNE) 1,997 4.9 -9.0°
Maximum altitude 23:39:12 56° 100° (E) 741 2.6 -9.9°
Drops below altitude 10° 23:43:26 10° 179° (S) 1,982 5.3 -10.7°
Sets 23:45:39 0° 184° (S) 2,884 6.2 -11.2°
